Regional Weather Roundup
Issued by NWS Green Bay, WI

Home | Current Version | Previous Version | Graphics & Text | Print | Product List | Glossary Off
Versions: 1 2 3 4 5 6 7 8 9 10 11 12 13 14 15 16 17 18 19 20 21 22 23 24 25 26 27 28 29 30 31 32 33 34 35 36 37 38 39 40 41 42 43 44 45 46 47 48 49 50

000
ASUS43 KGRB 051200
RWRGRB

NORTH-CENTRAL AND NORTHEAST WISCONSIN REGIONAL WEATHER ROUNDUP
NATIONAL WEATHER SERVICE GREEN BAY WI
700 AM CDT SUN JUL 05 2015

WIZ005-009-010>012-018-019-051300-
NORTH CENTRAL WISCONSIN

CITY           SKY/WX    TMP DP  RH WIND       PRES   REMARKS
IRONWOOD       SUNNY     66  63  88 S9        29.94F
MANITOWISH WTR NOT AVBL
ARBOR VITAE    NOT AVBL
EAGLE RIVER    NOT AVBL
LAND O LAKES   NOT AVBL
RHINELANDER    CLOUDY    64  62  93 SW3       30.06R FOG
PHILLIPS       NOT AVBL
ANTIGO         NOT AVBL
TOMAHAWK       NOT AVBL
MERRILL        NOT AVBL
$$

WIZ013-073-051300-
NORTHEAST WISCONSIN

CITY           SKY/WX    TMP DP  RH WIND       PRES   REMARKS
IRON MOUNTAIN  SUNNY     62  59  90 SE5       30.02S FOG
MARINETTE      PTSUNNY   64  61  88 CALM      30.03S
$$

WIZ017-030-035>037-045-051300-
CENTRAL WISCONSIN

CITY           SKY/WX    TMP DP  RH WIND       PRES   REMARKS
MEDFORD        NOT AVBL
WAUSAU         CLOUDY    66  63  90 S3        30.03F FOG
MOSINEE        CLOUDY    64  63  94 SW5       30.06R
MARSHFIELD     SUNNY     63  60  90 S3        30.04S FOG
WISC RAPIDS    SUNNY     64  60  87 S5        30.05F
STEVENS POINT  NOT AVBL
WAUPACA        NOT AVBL
SHAWANO        NOT AVBL
CLINTONVILLE   NOT AVBL
$$

WIZ038-039-048-051-051300-
FOX VALLEY

CITY           SKY/WX    TMP DP  RH WIND       PRES   REMARKS
NWS GREEN BAY  SUNNY     65  63  93 CALM      30.05S FOG
APPLETON       PTSUNNY   66  61  82 SW7       30.06R
OSHKOSH        SUNNY     66  61  84 S6        30.05R
FOND DU LAC    SUNNY     65  62  90 S5        30.07R
$$

WIZ022-050-052-051300-
EAST CENTRAL WISCONSIN

CITY           SKY/WX    TMP DP  RH WIND       PRES   REMARKS
STURGEON BAY   CLOUDY    63  57  82 S6        30.08S
MANITOWOC      NOT AVBL
SHEBOYGAN      SUNNY     64  61  90 CALM      30.07R FOG
$$

LMZ563-521-522-541>543-051300-
LAKESHORE

STATION/POSITION TIME  TEMP    WIND        PRES    VSBY  WAVE
                       AIR SEA DIR/SP/G                  HT/PER
                 (UTC) (F)     (DEG/KT/KT) (MB)    (MI)  (FT/S)
SHEBOYGAN LKSHOR 1100   62     200/  4/  5 1017.9R
KEWAUNEE LKSHORE 1100   61      CALM  /  1 1016.7R
NORTHPORT PIER   1100   62     160/  4/  8 1017.3R
N MID LAKE BUOY  1050   53 44  190/ 10/ 10 1017.1R         0
S GREEN BAY BUOY 1100   69 69  220/ 10/ 12 1018.4R
CHAMBERS ISLAND  1100   65     180/  3/  6 1016.9R
MENOMINEE LKSHOR 1100   66     200/  3/  5 1017.6R
$$


USA.gov is the U.S. government's official web portal to all federal, state and local government web resources and services.